Regional Weather Roundup
Issued by NWS

Home | Current Version | Previous Version | Text Only | Print | Product List | Glossary On
Versions: 1 2 3 4 5 6 7 8 9 10 11 12 13 14 15 16 17 18 19 20 21 22 23 24 25 26 27 28 29 30 31 32 33 34 35 36 37 38 39 40 41 42 43 44 45 46 47 48 49 50
000
ASUS44 KFWD 200601
RWRTX
NORTH TEXAS HOURLY WEATHER ROUNDUP
NATIONAL WEATHER SERVICE FORT WORTH TX
100 AM CDT FRI OCT 20 2017

NOTE: "FAIR" INDICATES FEW OR NO CLOUDS BELOW 12,000 FEET WITH NO
SIGNIFICANT WEATHER AND/OR OBSTRUCTIONS TO VISIBILITY.

TXZ118-119-200700-
DALLAS/FORT WORTH METROPLEX

CITY           SKY/WX    TMP DP  RH WIND       PRES   REMARKS
DFW AIRPORT    FAIR      70  56  61 SE10      30.08S
6HR MIN TEMP:  70; 6HR MAX TEMP:  77;

DALLAS LOVE    FAIR      69  55  60 SE15      30.09S
6HR MIN TEMP:  69; 6HR MAX TEMP:  78;

FTW MEACHAM    FAIR      69  59  70 SE10      30.08S
6HR MIN TEMP:  69; 6HR MAX TEMP:  78;

DAL-EXECUTIVE  FAIR      67  57  70 SE9       30.09S
6HR MIN TEMP:  67; 6HR MAX TEMP:  75;

FTW-ALLIANCE   CLOUDY    69  57  65 SE9       30.08S
6HR MIN TEMP:  68; 6HR MAX TEMP:  73;

ARLINGTON      FAIR      69  58  67 SE13      30.09S
6HR MIN TEMP:  68; 6HR MAX TEMP:  76;

GRAND PRAIRIE  FAIR      69  55  61 SE7       30.10S
6HR MIN TEMP:  69; 6HR MAX TEMP:  77;

ADDISON        FAIR      68  55  64 SE14      30.11S
6HR MIN TEMP:  68; 6HR MAX TEMP:  76;

MESQUITE       FAIR      65  54  68 SE6       30.10F
6HR MIN TEMP:  65; 6HR MAX TEMP:  74;

LANCASTER      FAIR      65  54  66 SE3       30.11S
6HR MIN TEMP:  65; 6HR MAX TEMP:  76;

$$

TXZ091>094-102>105-117-120-121-131>134-200700-
NORTH CENTRAL TEXAS

CITY           SKY/WX    TMP DP  RH WIND       PRES   REMARKS
SHRMAN/DENISON FAIR      65  54  66 SE12      30.10F
6HR MIN TEMP:  65; 6HR MAX TEMP:  72;

GAINESVILLE    FAIR      61  54  77 SE7       30.11S
6HR MIN TEMP:  61; 6HR MAX TEMP:  68;

BOWIE          FAIR      61  53  75 SE3       30.08S
6HR MIN TEMP:  61; 6HR MAX TEMP:  70;

BRIDGEPORT     FAIR      65  55  70 SE5       30.09F
6HR MIN TEMP:  63; 6HR MAX TEMP:  72;

DECATUR        FAIR      65  55  69 SE8       30.08S
6HR MIN TEMP:  65; 6HR MAX TEMP:  71;

DENTON         FAIR      67  56  67 SE10      30.08F
6HR MIN TEMP:  67; 6HR MAX TEMP:  73;

MCKINNEY       FAIR      66  57  72 SE8       30.10S
6HR MIN TEMP:  65; 6HR MAX TEMP:  74;

BONHAM         FAIR      61  53  75 SE7       30.12S
6HR MIN TEMP:  61; 6HR MAX TEMP:  71;

ROCKWALL       FAIR      66  56  68 SE8       30.10F
6HR MIN TEMP:  66; 6HR MAX TEMP:  74;

TERRELL        FAIR      67  55  65 SE6       30.11S
6HR MIN TEMP:  67; 6HR MAX TEMP:  76;

WAXAHACHIE     FAIR      66  58  73 SE3       30.11F
6HR MIN TEMP:  66; 6HR MAX TEMP:  75;

CLEBURNE       FAIR      68  61  77 SE12      30.10S
GRANBURY       FAIR      69  57  65 SE6       30.09S
6HR MIN TEMP:  69; 6HR MAX TEMP:  77;

$$

TXZ083>090-098>101-113>116-127>130-139>142-154-155-200700-
WESTERN NORTH TEXAS

CITY           SKY/WX    TMP DP  RH WIND       PRES   REMARKS
WICHITA FALLS  FAIR      62  52  69 SE9       30.05F
6HR MIN TEMP:  62; 6HR MAX TEMP:  72;

WF-KICKAPOO    FAIR      62  53  74 SE5       30.08F
6HR MIN TEMP:  60; 6HR MAX TEMP:  73;

ABILENE        FAIR      67  57  70 S14       30.05F
6HR MIN TEMP:  67; 6HR MAX TEMP:  73;

BRECKENRIDGE   FAIR      68  54  60 SE8       30.05F
6HR MIN TEMP:  68; 6HR MAX TEMP:  76;

CISCO          MOCLDY    66  55  68 S12       30.07F
EASTLAND       FAIR      63  55  74 SE5       30.06F
6HR MIN TEMP:  63; 6HR MAX TEMP:  74;

RANGER         FAIR      63  55  76 S6        30.07F
6HR MIN TEMP:  42; 6HR MAX TEMP:  91;

MINERAL WELLS  FAIR      65  55  70 SE7       30.06S
6HR MIN TEMP:  65; 6HR MAX TEMP:  73;

STEPHENVILLE   FAIR      64  56  75 SE3       30.11S
6HR MIN TEMP:  64; 6HR MAX TEMP:  74;

COMANCHE       FAIR      64  57  77 S8        30.08S
6HR MIN TEMP:  63; 6HR MAX TEMP:  74;

BROWNWOOD      CLOUDY    64  55  72 SE6       30.07F
COLEMAN        FAIR      68  56  64 S9        30.07F
6HR MIN TEMP:  68; 6HR MAX TEMP:  75;

$$

TXZ143>147-156>162-174-175-200700-
CENTRAL TEXAS

CITY           SKY/WX    TMP DP  RH WIND       PRES   REMARKS
WACO           FAIR      69  60  73 SE8       30.09S
6HR MIN TEMP:  69; 6HR MAX TEMP:  77;

WACO-MCGREGOR  FAIR      67  59  75 S6        30.10R
6HR MIN TEMP:  67; 6HR MAX TEMP:  78;

HILLSBORO      FAIR      68  58  71 E10       30.09F
6HR MIN TEMP:  68; 6HR MAX TEMP:  77;

CORSICANA      FAIR      68  58  70 SE8       30.12S
6HR MIN TEMP:  66; 6HR MAX TEMP:  73;

MEXIA          FAIR      68  58  71 SE3       30.10S
6HR MIN TEMP:  67; 6HR MAX TEMP:  74;

HEARNE         MOCLDY    69  60  72 SE3       30.11R
6HR MIN TEMP:  69; 6HR MAX TEMP:  78;

CAMERON        FAIR      69  62  77 SE7       30.10S
6HR MIN TEMP:  69; 6HR MAX TEMP:  77;

TEMPLE         FAIR      68  62  81 SE9       30.10R
6HR MIN TEMP:  68; 6HR MAX TEMP:  77;

KILLEEN        FAIR      65  61  87 SE10      30.08F
6HR MIN TEMP:  63; 6HR MAX TEMP:  73;

KILLEEN-SKYLRK FAIR      69  61  75 SE13      30.09F
6HR MIN TEMP:  68; 6HR MAX TEMP:  76;

FORT HOOD      FAIR      67  60  79 SE13      30.06S
6HR MIN TEMP:  67; 6HR MAX TEMP:  75;

GATESVILLE     FAIR      66  61  82 SE6       30.10S
HAMILTON       FAIR      63  57  81 S8        30.09S
6HR MIN TEMP:  63; 6HR MAX TEMP:  73;

LAMPASAS       FAIR      64  59  85 SE3       30.08S
6HR MIN TEMP:  64; 6HR MAX TEMP:  76;

$$

TXZ095>097-106>112-122>126-135>138-148>153-164>167-200700-
EAST TEXAS

CITY           SKY/WX    TMP DP  RH WIND       PRES   REMARKS
PARIS          FAIR      58  53  84 E8        30.14S
6HR MIN TEMP:  58; 6HR MAX TEMP:  70;

SULPHUR SPRNGS FAIR      63  55  76 E5        30.14S
6HR MIN TEMP:  63; 6HR MAX TEMP:  72;

MOUNT PLEASANT FAIR      58  55  87 CALM      30.14F
6HR MIN TEMP:  58; 6HR MAX TEMP:  71;

GILMER         FAIR      63  56  79 CALM      30.13S
6HR MIN TEMP:  60; 6HR MAX TEMP:  71;

MINEOLA        FAIR      61  55  82 SE3       30.12S
TYLER          FAIR      64  58  80 SE6       30.12S
6HR MIN TEMP:  64; 6HR MAX TEMP:  72;

LONGVIEW       FAIR      62  58  86 E3        30.12F
6HR MIN TEMP:  61; 6HR MAX TEMP:  73;

MARSHALL       FAIR      64  56  77 CALM      30.15F
6HR MIN TEMP:  57; 6HR MAX TEMP:  69;

ATHENS         FAIR      63  54  72 SE3       30.11S
PALESTINE      FAIR      69  58  68 E7        30.12F
JACKSONVILLE   FAIR      68  58  70 SE3       30.14S
HENDERSON      FAIR      60  55  86 CALM      30.14S
6HR MIN TEMP:  60; 6HR MAX TEMP:  72;

CENTER         FAIR      60  59  96 CALM      30.15S
6HR MIN TEMP:  60; 6HR MAX TEMP:  71;

NACOGDOCHES    FAIR      59  56  89 CALM      30.14S
6HR MIN TEMP:  59; 6HR MAX TEMP:  70;

LUFKIN         FAIR      63  58  83 CALM      30.12F
6HR MIN TEMP:  61; 6HR MAX TEMP:  69;

$$

SUPPLEMENTAL OBSERVATIONS (NWS FORT WORTH AREA)

CITY           SKY/WX    TMP DP  RH WIND       PRES   REMARKS
$$

SUPPLEMENTAL OBSERVATIONS (NWS NORMAN AREA)

CITY           SKY/WX    TMP DP  RH WIND       PRES   REMARKS
GOODLETT         N/A     65  49  56 SE10      30.03F
ODELL            N/A     65  53  65 SE10      30.06F
CROWELL          N/A     69  54  58 S13       30.04F
KNOX CITY        N/A     65  51  60 SE9       30.05S
SEYMOUR          N/A     66  52  59 SE10      30.05F
$$

SUPPLEMENTAL O


USA.gov is the U.S. government's official web portal to all federal, state and local government web resources and services.